World > North America > United States > Ohio > Freeport  

Freeport, OH Hourly Weather Updates

Feedback E-mail the Weather

Quick Clicks

Freeport, OH Weather Maps

°F °C°F °C
Freeport Weather Map
UTC Time: 7/25/2024, 19:00
Your Time:

Freeport, OH Regional Weather

Expires:202407252000;;284630
ASUS41 KCLE 251900
RWRCLE
OHIO REGIONAL WEATHER ROUNDUP
NATIONAL WEATHER SERVICE WILMINGTON, OH
300 PM EDT THU JUL 25 2024

NOTE: "FAIR" INDICATES FEW OR NO CLOUDS BELOW 12,000 FEET WITH NO
SIGNIFICANT WEATHER AND/OR OBSTRUCTIONS TO VISIBILITY.


OHZ036-037-039>041-045>050-054>059-063>069-073>076-082>088-252000-
  CENTRAL AND SOUTHEAST OHIO
  
CITY           SKY/WX    TMP DP  RH WIND       PRES   REMARKS
COLUMBUS       PTSUNNY   85  60  42 N15       30.16F                  
OSU AIRPORT    FAIR      83  59  44 NW9G17    30.17F                  
BOLTON FIELD   MOSUNNY   82  61  47 NW16      30.18                   
RICKENBACK AFB NOT AVBL                                               
NEWARK         FAIR      83  61  47 NW12      30.15F                  
MARION         FAIR      80  60  50 NW5       30.18F                  
LANCASTER      FAIR      84  61  45 NW12      30.16F                  
ZANESVILLE     PTSUNNY   83  62  49 NW10      30.14F                  
NEW PHILLY     FAIR      83  63  50 SW9       30.14F                  
$$
  

SKY/WX - Weather  TMP - Temperature  DP - Dew Point  RH - Humidity
WIND - Wind Direction/Speed PRES - Barometric Pressure VSB - Visibility
WCI - Wind Chill Index E13G22 Wind - East Wind 13 mph/Gusts of 22 mph

Trending Headlines

Trending Entertainment Headlines

Freeport Radar Loop

Use the map search tool if you want to place a location marker on the radar map...

Freeport Quick Facts

National Two Day Weather Forecast


E-mail the Freeport Weather Forecast

Voice your opinion or tell us about page issues...